ASRTU-1 (AO-123)

Last updated on Mon Nov 03 2025 00:03:22 GMT+0000 (Coordinated Universal Time)

1 61781U 24199AY 25306.55193383 .00010100 00000+0 34024-3 0 9998 2 61781 97.3300 172.4651 0016503 44.3170 315.9389 15.30813960 99199
UTC large
Height (km)
Speed (km/s)
/
Latitude / Longitude
Inclination (degrees)
Orbital Period (minutes)
Azimuth
Elevation
Range (km)
Doppler Factor

Next 0 passes for location: London (51.5072 / 0.1276)

Sorry there are no passes over London.